FW3734 Weather Reports


Display with metric or nautical units.
time (UTC)temp
F
wind
direction
speed
MPH
gust
MPH
rain 1hr
in
rain 24hr
in
rain mn
in
humidity
%
barometer
mb
20260902113018 81 166 0.0 0.0 0.00 0.00 0.00 70 1015.5
20260902111518 81 166 0.0 0.0 0.00 0.00 0.00 69 1015.4
20260902110020 82 190 0.0 4.0 0.00 0.00 0.00 68 1015.2
20260902104514 82 224 0.0 0.0 0.00 0.00 0.00 68 1015.2
20260902103013 82 213 0.0 2.0 0.00 0.00 0.00 68 1015.2
20260902101513 82 213 0.0 1.0 0.00 0.00 0.00 67 1015.1
20260902100014 82 219 0.0 0.0 0.00 0.00 0.00 67 1015.0
20260902094510 83 217 0.0 1.0 0.00 0.00 0.00 67 1014.9
20260902093019 82 182 0.0 8.0 0.00 0.00 0.00 68 1014.8
20260902091509 82 259 0.0 1.0 0.00 0.00 0.00 69 1014.8
20260902090008 81 211 0.0 2.0 0.00 0.00 0.00 71 1014.6
20260902084508 81 211 0.0 0.0 0.00 0.00 0.00 70 1014.7
20260902083006 81 211 0.0 0.0 0.00 0.00 0.00 71 1014.6
20260902081506 82 211 0.0 0.0 0.00 0.00 0.00 71 1014.6
20260902080004 82 211 0.0 0.0 0.00 0.00 0.00 71 1014.5
20260902074503 82 211 0.0 0.0 0.00 0.00 0.00 70 1014.6
20260902073002 82 211 0.0 0.0 0.00 0.00 0.00 70 1014.7
20260902071502 82 211 0.0 0.0 0.00 0.00 0.00 70 1014.7
20260902070100 82 211 0.0 0.0 0.00 0.00 0.00 70 1014.7
20260902064559 82 211 0.0 0.0 0.00 0.00 0.00 70 1014.7
20260902063059 83 211 0.0 0.0 0.00 0.00 0.00 70 1014.8
20260902060059 83 211 0.0 0.0 0.00 0.00 0.00 69 1014.8
20260902054610 83 211 0.0 0.0 0.00 0.00 0.00 68 1014.8
20260902053102 84 200 0.0 2.0 0.00 0.00 0.00 68 1014.7
20260902051549 84 192 0.0 0.0 0.00 0.00 0.00 67 1014.7
20260902050048 84 225 0.0 0.0 0.00 0.00 0.00 66 1014.7
20260902044551 85 215 0.0 3.0 0.00 0.00 0.00 65 1014.6
20260902043047 85 156 0.0 1.0 0.00 0.00 0.00 65 1014.5
20260902041548 85 216 0.0 1.0 0.00 0.00 0.00 64 1014.5
20260902040049 86 147 0.0 1.0 0.00 0.00 0.00 63 1014.6
20260902034545 86 209 0.0 0.0 0.00 0.00 0.00 62 1014.7
20260902033045 86 156 0.0 1.0 0.00 0.00 0.00 61 1014.6
20260902031546 87 150 0.0 0.0 0.00 0.00 0.00 60 1014.6
20260902030043 87 329 0.0 0.0 0.00 0.00 0.00 58 1014.6
20260902024544 87 138 0.0 0.0 0.00 0.00 0.00 57 1014.5
20260902023052 88 169 0.0 0.0 0.00 0.00 0.00 56 1014.3
20260902021542 88 153 0.0 1.0 0.00 0.00 0.00 56 1014.2
20260902020042 89 146 0.0 0.0 0.00 0.00 0.00 56 1014.0
20260902014541 89 123 0.0 0.0 0.00 0.00 0.00 56 1013.9
20260902013051 90 184 0.0 2.0 0.00 0.00 0.00 55 1013.7
20260902011540 91 146 0.0 1.0 0.00 0.00 0.00 54 1013.7
20260902010039 91 192 0.0 1.0 0.00 0.00 0.00 52 1013.5
20260902004539 92 148 0.0 1.0 0.00 0.00 0.00 50 1013.4
20260902003041 93 159 0.0 7.0 0.00 0.00 0.00 49 1013.4
20260902001553 94 132 0.0 0.0 0.00 0.00 0.00 48 1013.5
20260902000040 94 150 0.0 8.0 0.00 0.00 0.00 47 1013.5
20260901234536 95 187 0.0 4.0 0.00 0.00 0.00 47 1013.6
20260901233036 95 142 0.0 7.0 0.00 0.00 0.00 46 1013.6
20260901231535 95 135 0.0 7.0 0.00 0.00 0.00 45 1013.6
20260901230036 96 140 0.0 0.0 0.00 0.00 0.00 43 1013.7
20260901224535 97 169 0.0 0.0 0.00 0.00 0.00 41 1013.6
20260901223036 98 282 0.0 0.0 0.00 0.00 0.00 41 1013.6
20260901221542 99 181 0.0 0.0 0.00 0.00 0.00 40 1013.6
20260901220032 99 158 0.0 1.0 0.00 0.00 0.00 40 1013.6
20260901214532 99 207 0.0 3.0 0.00 0.00 0.00 40 1013.5
20260901213032 99 207 0.0 2.0 0.00 0.00 0.00 38 1013.5
20260901211530 99 229 0.0 7.0 0.00 0.00 0.00 40 1013.6
20260901210028 99 265 0.0 1.0 0.00 0.00 0.00 39 1013.7
20260901204524 99 217 0.0 4.0 0.00 0.00 0.00 38 1014.0
20260901203026 99 151 0.0 1.0 0.00 0.00 0.00 39 1014.2
20260901201522 99 130 0.0 2.0 0.00 0.00 0.00 39 1014.3
20260901200019 99 216 0.0 1.0 0.00 0.00 0.00 40 1014.5
20260901194518 98 231 0.0 5.0 0.00 0.00 0.00 39 1014.6
20260901193015 98 19 0.0 0.0 0.00 0.00 0.00 38 1014.8
20260901191524 98 232 0.0 2.0 0.00 0.00 0.00 41 1014.9
20260901190010 97 211 0.0 7.0 0.00 0.00 0.00 44 1015.1
20260901184509 96 218 0.0 1.0 0.00 0.00 0.00 46 1015.2
20260901183004 96 309 0.0 1.0 0.00 0.00 0.00 49 1015.3
20260901181503 96 252 0.0 0.0 0.00 0.00 0.00 50 1015.5
20260901180100 95 127 0.0 3.0 0.00 0.00 0.00 48 1015.7
20260901174557 95 267 0.0 1.0 0.00 0.00 0.00 51 1015.9
20260901173101 94 260 0.0 1.0 0.00 0.00 0.00 50 1016.0
20260901171600 93 202 0.0 2.0 0.00 0.00 0.00 54 1016.1
20260901170047 92 273 0.0 5.0 0.00 0.00 0.00 53 1016.3
20260901164546 92 199 0.0 0.0 0.00 0.00 0.00 55 1016.5
20260901163042 91 271 0.0 10.0 0.00 0.00 0.00 55 1016.7
20260901161552 90 202 0.0 7.0 0.00 0.00 0.00 57 1016.7
20260901160038 90 205 0.0 5.0 0.00 0.00 0.00 58 1016.8
20260901154537 89 212 0.0 3.0 0.00 0.00 0.00 59 1016.8
20260901153029 88 241 0.0 2.0 0.00 0.00 0.00 61 1016.9
20260901151528 87 225 0.0 1.0 0.00 0.00 0.00 62 1016.9
20260901150035 86 225 0.0 3.0 0.00 0.00 0.00 63 1016.8
20260901144529 86 260 0.0 4.0 0.00 0.00 0.00 64 1016.7
20260901143018 85 219 0.0 0.0 0.00 0.00 0.00 66 1016.8
20260901141515 84 227 0.0 1.0 0.00 0.00 0.00 67 1016.8
20260901140010 83 199 0.0 7.0 0.00 0.00 0.00 68 1016.8
20260901134508 82 225 0.0 0.0 0.00 0.00 0.00 70 1016.9
20260901133007 81 244 0.0 0.0 0.00 0.00 0.00 71 1016.9
20260901131507 80 244 0.0 0.0 0.00 0.00 0.00 72 1016.9
20260901130006 79 244 0.0 1.0 0.00 0.00 0.00 73 1016.8
20260901124511 78 243 0.0 0.0 0.00 0.00 0.00 75 1016.7
20260901123002 78 243 0.0 1.0 0.00 0.00 0.00 76 1016.5
20260901121501 77 243 0.0 0.0 0.00 0.00 0.00 77 1016.3
20260901120059 77 243 0.0 0.0 0.00 0.00 0.00 76 1016.3
20260901114638 77 243 0.0 0.0 0.00 0.00 0.00 76 1016.1